RH
96 96 96 95 96 100 101 99 99 101 103 104 103 102 102 101 100 100 100 100 100 100 100 101 100 101 102 100 99 99 98 97 96 96 97 96 93 89 83 77 73 67 57 50 50 54 57 56 49 41 35 31 31 31 31 31 31 31 32 36 42 51 52 48 44 41 39 39 39 39 41 44 48 56 68 79 85 86 90 94 95 88 73 61 58
102 100 95 94 97 98 98 96 97 101 101 101 101 99 99 99 99 100 101 101 100 100 100 100 101 102 101 101 101 101 100 100 99 98 96 91 81 70 60 55 53 50 44 44 46 47 47 43 37 32 31 31 31 31 31 31 32 33 35 40 46 53 55 51 46 43 41 40 39 38 38 40 41 51 68 79 86 88 87 90 98 98 87 73 64
100 101 96 95 98 96 95 96 99 102 101 100 100 100 100 99 99 100 100 100 100 100 100 100 100 100 100 100 99 100 99 98 95 90 83 74 61 49 41 38 38 38 37 38 38 36 35 34 32 32 32 32 31 31 32 32 33 35 38 43 49 56 58 54 50 46 44 42 41 40 38 38 37 42 59 73 85 93 90 86 91 98 97 86 75
98 100 101 98 98 98 97 99 102 102 100 101 100 99 100 99 100 100 99 100 99 98 97 95 95 97 97 95 94 95 94 90 85 74 61 51 44 38 34 32 32 33 33 33 32 32 32 32 32 32 32 32 32 32 32 33 34 38 44 50 55 60 60 58 55 51 49 46 44 43 41 40 38 37 44 54 70 90 96 90 87 93 100 98 87
99 101 103 101 99 100 101 100 101 101 100 100 101 99 99 100 99 99 99 99 98 97 96 93 94 95 94 93 92 92 90 83 72 57 42 35 35 34 32 31 32 32 32 32 32 32 32 32 32 32 32 32 32 33 33 34 37 43 53 61 63 65 65 62 59 55 52 51 49 48 46 44 41 39 38 39 46 65 86 95 93 90 91 95 94
99 104 103 101 101 102 102 102 100 100 101 100 101 100 100 101 100 98 99 99 99 98 97 96 96 95 95 96 94 90 83 70 56 44 35 33 34 33 32 31 32 32 32 33 33 33 33 33 32 32 32 33 33 33 34 36 41 51 63 69 69 69 69 67 64 61 57 53 51 50 49 48 46 42 41 40 37 40 54 73 88 94 91 87 88
98 102 103 100 100 100 99 101 101 100 101 101 100 100 100 99 99 99 99 99 99 99 98 98 97 95 95 92 86 80 70 54 44 39 35 33 32 32 32 32 32 33 33 34 34 34 33 33 32 32 33 33 34 34 35 40 48 60 71 74 73 71 70 71 71 68 64 59 54 52 50 49 48 46 44 44 43 40 37 42 56 76 90 91 87
101 99 100 100 98 99 98 99 102 101 99 100 100 99 99 99 99 100 100 99 99 100 100 99 97 94 92 85 75 70 60 47 40 37 33 32 31 32 32 33 33 34 35 35 35 35 34 33 33 33 33 33 35 36 38 45 55 66 75 76 75 73 70 72 74 73 69 65 59 54 50 48 46 47 46 45 46 47 43 38 36 45 63 80 86
95 101 98 101 100 99 99 98 100 102 100 101 101 99 99 100 100 100 100 100 100 100 101 99 96 93 86 77 69 63 54 45 40 36 34 33 33 33 34 35 36 36 37 38 37 37 36 35 35 34 34 34 36 40 44 51 60 68 73 73 73 73 71 72 74 75 73 69 64 59 53 49 45 43 44 44 46 49 50 46 40 36 41 53 65
61 79 84 98 103 97 98 100 100 102 101 101 100 99 100 100 101 101 100 100 100 100 100 98 94 90 82 73 66 58 50 44 41 39 38 36 34 35 37 38 39 39 40 40 40 40 39 38 38 37 37 37 39 44 50 56 61 66 67 66 66 67 69 70 72 74 72 69 67 63 58 53 48 45 42 42 44 47 50 52 48 42 40 43 45
30 40 50 74 91 93 99 102 101 102 101 101 101 100 100 101 101 101 100 100 100 100 100 97 93 88 80 72 65 57 50 45 44 43 41 39 38 39 40 41 41 41 41 42 42 42 42 42 42 41 41 42 43 46 52 56 59 60 60 60 61 64 65 65 66 66 65 62 59 58 56 53 50 48 46 45 45 45 47 51 53 48 44 48 46
26 26 28 42 60 80 100 106 103 105 102 99 101 101 99 100 101 100 99 100 101 100 100 98 92 86 81 74 67 58 51 47 45 44 43 42 43 44 45 46 46 46 46 45 46 46 46 46 47 47 47 48 49 49 52 55 56 56 55 56 59 63 66 65 62 60 58 56 52 50 49 48 49 49 48 47 46 47 47 48 52 51 46 50 50
27 28 28 32 37 56 89 106 104 103 103 101 101 102 102 101 100 100 101 101 101 99 99 98 91 86 83 79 71 62 53 48 46 47 48 50 51 53 54 55 55 55 54 53 53 52 52 52 52 53 53 53 54 54 56 58 59 60 60 60 62 64 67 67 65 61 58 55 52 49 48 47 48 49 50 50 48 47 47 47 49 50 48 47 49
30 29 30 33 31 38 71 100 103 99 100 101 101 101 102 102 101 101 101 101 100 100 98 95 90 86 84 81 73 64 56 51 51 55 59 61 63 65 65 65 65 65 64 63 62 61 60 60 59 58 58 58 58 59 61 63 64 66 65 64 64 63 63 63 62 61 58 56 53 51 50 49 48 48 49 50 50 49 48 47 47 48 48 46 46
34 31 29 32 31 32 49 73 91 100 101 100 100 101 102 101 101 101 101 100 101 102 100 96 92 86 81 78 72 66 63 62 66 70 73 73 72 71 70 70 70 71 72 73 73 72 72 70 68 66 64 64 64 64 64 64 64 66 67 67 66 66 65 63 61 59 56 54 52 51 50 49 48 47 47 48 49 50 49 49 48 47 49 47 45
40 36 32 30 30 29 32 40 56 75 90 99 101 100 101 101 101 100 99 98 96 95 94 93 92 87 83 80 78 76 76 76 78 79 78 75 72 69 68 67 68 71 74 78 80 82 82 82 80 77 75 75 75 74 73 73 73 73 73 72 70 68 66 64 62 59 58 56 54 54 52 51 49 47 47 47 47 49 49 49 48 47 47 47 47
45 42 38 34 31 30 31 33 37 44 64 88 100 101 103 103 102 102 100 99 96 94 93 90 88 85 81 78 76 76 75 74 74 74 72 69 66 63 62 61 62 65 68 73 78 81 85 86 87 88 87 86 84 83 81 79 78 76 73 70 67 66 65 64 64 63 63 63 61 59 57 54 52 49 47 47 46 47 47 47 47 47 45 45 46
52 48 44 41 38 34 32 34 36 35 43 61 76 88 95 94 95 96 95 96 95 95 95 92 89 84 76 70 68 67 68 67 66 65 63 61 58 55 54 53 53 55 57 61 64 67 71 74 77 79 79 78 76 76 74 72 71 69 68 69 70 71 71 71 72 71 70 68 65 61 58 56 53 49 47 45 45 45 44 44 44 45 45 42 42
58 55 51 47 45 42 39 38 38 38 36 38 44 53 60 63 70 76 78 81 83 87 91 91 87 79 70 67 66 65 63 61 58 56 53 52 50 50 50 50 51 52 53 55 56 57 59 61 63 63 63 63 64 64 64 64 65 67 70 74 77 78 78 78 78 77 75 72 68 63 59 56 52 49 47 45 44 43 43 43 41 42 43 41 40
65 61 58 55 51 48 46 44 43 41 40 38 37 39 42 47 56 66 74 79 82 84 83 79 74 69 68 68 64 59 56 53 50 49 49 50 51 52 54 56 57 58 59 60 60 61 61 61 60 59 59 59 59 59 60 62 65 69 74 78 80 82 82 82 80 78 76 73 70 65 59 55 51 49 49 47 46 44 43 43 42 42 41 40 39
72 68 65 62 59 56 53 52 49 47 45 44 43 42 42 44 49 58 68 75 74 71 68 68 69 69 67 62 56 52 49 48 48 50 51 53 55 58 60 62 64 65 67 67 67 67 66 65 63 61 60 59 59 59 60 62 65 69 73 76 80 82 82 83 81 78 75 71 67 62 57 54 52 52 52 51 50 48 46 46 43 42 41 39 39
83 79 75 70 67 64 62 59 57 55 54 53 50 49 48 48 48 51 58 62 64 67 69 71 70 66 59 53 50 49 49 50 52 54 56 58 60 63 65 67 68 69 70 70 69 68 66 63 62 60 59 59 59 60 61 63 66 69 73 76 78 80 80 81 79 76 72 66 62 58 55 55 55 55 56 55 55 54 52 51 47 43 42 39 38
97 94 90 84 79 77 74 71 68 66 65 64 62 61 60 59 60 62 66 70 74 76 74 69 63 56 52 50 50 52 53 56 58 61 64 66 67 68 69 69 70 70 69 68 66 63 61 59 58 56 56 56 57 59 62 65 68 71 76 78 80 82 81 78 75 70 66 62 60 59 57 56 56 56 57 57 58 59 57 56 52 47 44 42 39
96 96 96 92 89 88 86 85 83 82 81 80 79 79 78 79 80 81 82 82 78 73 66 60 56 54 53 54 57 60 62 66 69 72 73 71 69 67 66 66 65 65 64 62 60 59 57 57 58 57 57 56 56 58 61 64 69 74 78 80 80 80 77 74 70 67 65 63 61 60 58 57 57 56 57 57 58 60 59 57 55 50 46 44 41
89 90 91 90 89 90 90 91 91 92 93 91 88 86 86 87 87 85 81 76 69 63 59 57 56 56 59 62 66 68 71 74 75 73 69 65 62 61 60 61 62 62 61 60 59 59 59 60 62 63 63 60 58 58 59 62 66 70 73 74 73 72 70 69 67 65 64 62 61 59 58 58 58 58 57 56 56 56 56 55 54 53 48 46 44
84 87 86 85 85 86 86 87 88 91 90 88 86 85 85 84 81 76 72 67 63 59 57 57 59 62 66 69 71 73 75 74 70 66 62 60 59 60 61 62 63 64 64 64 63 63 65 67 69 70 69 66 62 60 59 61 64 65 67 68 69 69 69 68 67 65 63 61 60 59 58 57 56 57 56 56 55 53 52 51 49 49 48 45 45
72 77 79 79 80 81 80 79 82 84 84 84 85 86 85 81 75 70 66 63 60 59 60 62 65 69 71 72 72 72 71 68 65 62 60 61 62 63 65 65 66 68 69 69 70 70 71 73 73 74 72 69 65 63 62 62 62 64 66 68 70 70 71 69 67 65 62 60 59 58 58 57 55 54 53 52 53 52 51 50 46 45 45 42 43
70 73 75 76 78 77 77 80 82 83 84 86 87 85 81 76 72 69 67 64 64 65 68 71 75 76 74 70 68 68 68 67 65 64 65 67 69 69 69 70 71 72 73 74 74 74 74 75 75 75 73 69 67 65 63 62 62 65 67 70 71 71 70 68 65 63 61 59 58 57 56 55 53 52 51 49 49 48 48 49 47 44 43 42 41
78 79 79 80 81 80 82 86 87 87 87 87 85 82 79 77 76 74 72 71 73 76 80 85 86 80 71 66 67 70 71 70 69 71 74 75 74 73 72 72 73 73 74 74 75 76 76 77 77 76 72 68 66 64 65 66 67 69 70 70 69 67 66 64 62 62 60 58 57 55 53 52 50 49 48 47 46 45 44 45 45 44 42 41 41
86 87 88 87 87 86 87 88 86 85 84 83 82 81 81 82 81 80 79 83 87 90 94 96 88 77 69 70 75 76 75 74 77 81 81 78 75 73 71 72 72 72 72 73 76 77 79 80 79 75 71 68 67 67 69 71 71 71 69 67 65 63 62 62 62 61 60 57 54 52 50 48 47 46 45 44 42 41 41 40 41 42 41 40 39
91 91 90 88 86 85 86 85 83 81 79 79 79 80 80 82 83 85 89 95 98 98 96 90 80 76 78 82 83 81 79 81 85 84 81 76 73 70 69 69 70 71 73 76 80 81 82 81 77 74 72 71 73 74 74 72 70 68 66 64 63 62 61 61 61 59 56 54 51 48 46 43 42 41 40 39 38 35 34 34 34 35 36 37 37
92 91 88 86 85 85 85 84 83 82 80 80 80 80 81 84 87 92 97 99 98 94 89 84 83 88 92 91 86 83 83 86 85 80 76 73 70 68 67 69 71 75 78 82 84 84 83 81 78 76 75 75 76 75 73 70 67 64 63 62 62 62 61 60 58 54 51 49 48 46 44 42 39 37 35 33 32 30 28 27 27 27 28 30 31
99 97 95 94 93 93 92 91 90 91 90 88 87 87 89 91 93 97 99 99 96 93 92 93 97 99 96 91 87 85 84 82 78 75 72 69 68 68 70 73 76 79 81 83 86 86 84 82 79 77 75 74 74 72 70 69 66 63 62 62 61 61 58 55 52 50 49 48 46 44 41 38 34 31 29 28 26 25 24 22 21 21 21 22 24
105 106 104 103 102 100 100 99 100 102 100 99 98 97 97 99 99 100 102 102 100 99 101 102 102 97 92 89 86 82 79 77 74 72 69 67 69 71 73 76 79 81 82 83 84 84 82 79 76 74 73 72 71 70 69 68 66 63 62 61 59 57 54 52 50 48 46 43 40 37 33 31 28 25 23 21 19 19 18 17 17 16 16 17 17
105 105 104 104 104 104 104 104 106 106 104 104 104 102 101 101 101 102 103 103 103 103 104 102 97 92 87 83 78 75 74 73 71 69 68 69 72 73 75 78 80 80 80 79 79 78 76 74 72 71 71 70 70 70 71 70 68 65 61 58 56 55 53 50 47 43 39 35 32 29 25 21 19 16 14 13 12 12 11 12 12 12 12 12 12
103 103 102 102 102 102 102 103 104 104 103 104 104 102 101 102 102 102 104 104 105 104 101 96 90 84 79 75 73 73 72 71 70 69 70 73 75 75 76 77 77 76 75 75 75 75 74 72 73 73 73 73 73 74 74 72 68 65 62 59 57 54 50 46 41 37 33 28 24 19 16 14 12 11 11 10 9 9 9 10 10 9 9 8 8
105 105 103 101 101 102 102 102 102 102 102 101 102 102 101 102 103 105 106 105 103 100 94 88 81 75 72 71 71 73 73 72 71 70 73 76 76 76 75 75 74 73 72 73 75 75 76 77 78 78 77 77 76 75 74 71 67 65 63 59 55 50 45 41 36 31 25 20 16 14 12 12 11 11 11 10 10 9 9 9 9 9 8 7 6
106 107 107 105 103 102 101 101 101 102 101 101 103 103 101 102 104 105 104 101 97 92 85 78 73 71 71 72 74 76 75 73 72 73 76 77 77 76 76 74 73 73 74 76 78 79 81 82 82 81 80 79 77 74 70 68 66 64 60 55 50 45 40 35 28 22 18 15 14 13 13 13 12 12 11 10 9 9 8 8 8 8 7 7 6
105 106 107 106 105 104 104 103 101 101 101 101 101 101 100 102 103 100 96 91 85 79 75 72 72 73 75 78 79 78 76 75 76 78 80 80 80 79 76 73 73 75 78 81 82 83 83 83 82 82 81 77 73 71 70 68 65 60 54 49 44 38 32 26 21 19 18 16 16 15 15 14 13 11 9 8 7 7 7 6 6 6 6 5 5
103 106 105 102 101 100 100 98 97 97 98 97 97 98 99 100 96 90 85 79 74 73 74 75 76 78 81 82 80 78 78 80 81 82 84 85 82 78 75 76 78 80 82 84 85 85 84 82 82 81 77 75 73 72 70 65 59 53 47 41 35 29 24 22 21 20 20 19 19 17 16 13 11 10 8 7 6 6 6 6 4 4 5 5 4
97 103 103 98 96 94 93 93 93 92 93 92 91 91 91 89 84 79 75 74 75 78 79 79 83 86 86 83 81 81 84 84 84 86 86 84 80 78 80 83 84 85 87 88 86 84 83 82 80 79 77 76 74 70 63 57 50 44 37 31 26 24 24 24 24 23 22 21 19 16 14 13 11 10 8 6 6 5 5 5 4 4 4 4 4
87 90 93 93 91 89 89 89 86 84 82 81 79 80 82 81 79 76 77 80 84 86 86 88 91 92 90 88 87 88 87 85 85 84 82 80 80 84 87 90 91 91 90 87 85 84 84 83 81 81 79 74 67 60 54 48 41 33 28 25 25 26 27 27 27 25 22 19 17 15 13 12 10 9 8 6 5 5 5 4 4 4 4 4 4
85 85 87 88 87 86 87 85 81 78 77 77 80 83 85 85 84 84 87 91 92 92 94 96 96 96 95 94 92 90 87 84 83 82 82 84 88 91 94 95 93 90 86 85 86 86 86 85 82 77 70 62 56 51 44 37 30 26 25 26 27 29 30 29 27 24 20 17 15 14 12 11 10 9 8 6 4 4 5 4 3 4 4 4 4
87 87 87 89 91 92 90 86 82 82 83 85 88 90 91 91 92 95 98 97 96 98 101 102 100 98 98 96 93 91 89 86 86 88 91 93 95 96 95 91 87 84 84 86 88 88 86 81 73 64 58 52 47 40 33 28 27 27 28 29 31 32 31 28 24 21 19 16 14 14 13 11 10 9 8 6 5 4 5 5 4 3 4 4 4
91 93 94 97 99 99 97 95 94 93 93 94 95 96 98 100 102 104 104 100 99 101 103 102 101 100 101 100 97 94 92 93 96 98 98 97 95 92 87 83 82 83 86 88 87 83 76 67 59 54 49 43 36 30 28 28 28 29 31 33 34 31 27 24 22 20 19 17 15 14 13 10 9 9 8 6 5 3 4 4 4 3 4 3 4
98 99 102 105 106 106 105 105 104 100 99 101 102 102 104 106 108 107 102 99 102 104 103 102 103 104 105 104 102 100 100 102 102 99 95 91 87 83 80 80 82 85 86 84 78 70 62 56 52 46 39 32 29 28 28 29 31 33 36 35 33 30 26 25 25 24 23 21 18 15 13 10 9 8 8 7 6 4 4 4 4 3 3 4 4
105 105 107 107 107 106 104 103 104 103 102 105 108 109 109 109 108 105 102 102 105 105 103 104 106 106 107 107 105 104 103 100 96 90 86 82 79 78 79 82 85 85 80 72 65 59 55 50 42 35 31 30 30 30 30 33 36 38 37 35 33 33 33 33 33 31 28 24 20 17 13 10 9 8 7 7 6 5 4 4 3 3 3 3 4
104 106 106 103 104 105 102 101 103 102 101 106 111 113 111 106 103 103 104 105 105 104 105 107 107 107 107 104 99 95 93 90 87 83 80 78 78 80 82 84 83 77 68 63 59 54 47 39 33 31 31 30 30 32 35 40 42 41 39 38 39 41 43 43 40 37 32 26 20 16 13 11 9 8 7 7 6 5 4 4 3 3 3 3 4
102 104 103 101 102 102 100 100 101 102 105 110 112 111 108 103 102 105 105 105 107 109 108 106 103 100 98 93 89 88 87 85 82 79 78 79 80 82 83 81 74 67 62 59 53 43 36 32 32 32 31 31 33 36 40 43 44 43 42 44 47 50 50 48 44 38 32 25 19 16 14 13 10 8 7 6 6 5 4 3 3 3 3 3 4
100 101 101 100 101 101 101 102 103 105 110 112 111 110 108 104 105 108 106 106 110 109 104 99 96 93 91 90 88 87 85 82 80 79 79 81 82 83 80 73 68 63 58 49 40 35 34 34 33 32 33 35 38 40 43 45 45 43 44 48 52 53 51 48 44 39 32 25 19 17 16 13 11 9 8 7 6 4 4 4 3 3 3 3 4
101 103 103 102 102 101 100 102 105 110 114 114 111 109 107 105 107 109 107 107 107 103 97 94 93 93 93 91 88 85 82 80 80 80 81 83 83 80 74 68 63 55 46 38 35 34 34 34 34 35 37 39 41 44 46 46 44 45 49 52 55 56 54 50 46 40 33 26 20 17 16 13 11 10 8 7 6 5 4 4 3 3 4 4 4
Wind_Speed
22 19 19 18 19 21 23 27 32 38 44 47 49 52 54 54 51 49 49 49 49 48 47 46 46 48 49 50 50 51 52 52 53 54 54 54 55 56 57 58 58 57 57 57 57 57 57 57 57 56 56 55 54 53 52 50 48 46 44 41 39 38 37 36 36 36 35 35 35 35 34 35 35 35 35 35 36 36 36 36 35 34 33 32 33
30 24 21 19 20 21 21 25 30 35 42 47 48 48 48 46 44 43 44 45 46 46 46 47 49 50 51 52 52 52 53 53 54 54 54 54 55 56 57 58 58 58 57 57 56 56 56 56 56 56 55 54 53 52 50 49 47 45 43 41 40 39 38 37 37 36 35 35 35 35 34 35 35 35 36 37 37 38 39 38 38 36 34 33 33
43 34 24 19 21 24 23 27 32 35 39 41 41 42 42 42 41 42 43 45 46 48 48 49 49 48 49 49 49 50 51 51 51 52 53 54 55 56 57 57 57 57 56 56 56 56 56 55 55 55 54 53 52 51 49 48 46 44 43 41 40 39 39 38 36 35 34 34 34 34 34 35 35 35 36 38 38 39 40 40 40 39 37 35 34
47 43 35 25 23 26 26 29 36 40 41 41 41 43 43 43 43 44 46 47 47 46 45 45 44 44 45 45 46 47 48 50 51 53 55 56 57 57 57 56 56 55 55 55 55 55 55 55 55 54 54 53 51 50 49 47 45 44 43 42 40 40 39 38 36 35 34 34 33 34 35 35 35 34 36 38 39 40 41 41 41 41 40 38 37
47 47 44 32 24 27 31 35 42 44 43 43 44 45 46 46 46 46 45 43 42 41 41 41 42 43 45 46 48 49 51 52 54 56 56 56 56 56 55 55 55 55 55 55 55 55 55 55 54 54 53 52 51 50 49 47 45 44 42 41 40 40 39 38 37 35 34 34 34 34 35 36 36 35 35 38 39 40 42 43 43 43 43 42 40
49 47 45 39 29 26 30 35 41 43 43 42 42 44 45 45 45 43 40 38 39 40 41 43 45 47 49 51 53 53 53 54 55 55 55 55 55 55 55 55 55 55 55 55 55 55 55 55 54 54 53 53 51 50 48 47 45 44 42 41 41 40 40 40 39 38 36 35 35 35 36 36 37 37 36 38 39 39 40 42 43 45 45 45 43
52 47 46 45 39 34 33 34 35 36 36 37 37 39 40 41 40 39 38 39 42 45 49 51 53 53 54 54 54 54 54 54 54 55 55 55 55 55 55 55 55 55 55 55 55 55 55 55 55 54 53 53 51 50 48 47 46 44 43 42 41 41 40 40 41 40 40 39 38 37 38 38 38 39 38 38 40 42 41 41 41 44 46 47 46
56 53 51 50 47 47 48 46 42 40 39 41 41 40 39 39 41 43 45 48 51 55 57 58 57 55 55 54 54 54 54 55 55 55 56 55 55 55 55 55 55 55 55 56 56 56 56 56 55 55 54 53 52 50 48 47 46 45 44 43 43 42 42 42 42 43 42 42 41 40 40 40 40 40 40 40 41 43 45 44 41 41 44 47 47
58 60 59 56 53 53 55 56 55 54 54 55 53 51 50 50 51 53 55 56 58 59 58 57 56 55 55 54 54 55 55 56 56 56 56 55 55 55 55 55 55 55 56 56 57 57 57 57 56 55 54 53 52 51 49 48 47 46 45 45 45 44 44 44 44 45 45 45 44 43 42 42 42 41 42 42 42 43 47 49 46 42 43 46 47
59 63 61 58 56 55 54 54 54 55 57 57 56 55 55 56 57 57 57 57 57 56 55 55 56 55 55 55 55 56 56 56 56 56 55 56 56 55 55 55 55 56 56 57 57 57 57 57 57 56 55 54 53 52 51 50 49 48 48 47 47 47 46 46 46 47 47 47 47 46 45 45 44 44 44 43 43 43 45 49 51 48 46 48 48
57 62 61 58 58 58 58 57 54 53 53 52 51 51 51 51 52 53 53 53 53 54 55 56 57 57 58 57 57 57 57 56 56 56 56 56 55 55 55 55 56 56 57 57 58 58 58 58 57 57 56 55 54 53 53 52 52 51 50 50 50 50 49 49 48 48 49 49 48 48 47 47 47 46 46 45 45 45 45 47 51 51 49 51 52
54 58 60 60 59 61 62 62 60 59 56 51 48 47 47 48 49 51 52 53 55 57 58 59 60 60 60 59 58 58 57 57 56 56 56 56 56 56 56 57 57 57 58 58 59 59 59 58 58 58 57 56 56 55 54 54 54 54 53 53 52 52 52 51 51 50 50 50 50 50 49 49 49 49 49 48 47 47 46 47 50 51 51 53 55
54 56 58 60 61 62 63 62 62 62 61 57 55 54 55 55 56 56 57 59 60 60 60 60 61 61 61 61 60 59 58 58 58 58 58 58 58 58 58 59 59 59 60 60 60 60 60 59 59 59 58 58 57 57 56 56 56 56 56 55 55 55 54 54 54 53 53 53 53 53 52 52 51 51 51 51 50 49 49 48 49 51 51 53 56
57 58 59 60 62 62 61 60 59 58 59 59 59 60 60 61 61 62 62 62 61 60 60 61 62 63 63 63 62 61 61 60 60 60 60 60 60 60 60 61 61 61 61 61 61 61 61 61 60 60 60 59 59 58 58 58 58 58 57 57 57 57 57 57 57 57 57 56 56 56 56 55 55 54 54 54 53 52 52 51 50 50 51 53 55
60 60 61 62 63 63 63 62 60 59 59 60 59 59 59 59 60 60 61 61 60 60 61 62 63 64 65 64 63 62 61 61 61 61 61 61 61 62 63 63 63 63 63 63 63 63 62 62 62 61 61 61 61 60 60 60 60 60 60 60 60 60 60 60 60 60 60 59 59 59 58 58 58 58 57 56 56 55 54 54 53 52 52 52 54
62 62 63 64 64 64 64 65 65 65 65 64 64 63 62 61 62 62 63 63 64 64 64 64 64 64 64 63 62 62 61 62 62 62 63 64 64 64 65 65 64 64 64 64 64 64 63 63 63 63 63 63 63 63 63 63 63 63 63 63 62 62 61 61 61 62 62 61 61 61 60 60 60 60 59 59 58 57 56 56 55 54 53 52 53
63 63 64 65 65 65 65 65 66 68 68 68 68 66 65 65 65 66 66 67 67 68 67 67 66 66 64 63 62 63 64 64 65 65 66 66 66 66 65 65 64 64 64 64 64 64 64 64 64 64 64 64 65 65 65 65 65 65 64 64 64 63 62 62 62 62 62 62 62 62 62 62 62 61 61 60 59 59 58 57 56 55 54 52 52
64 64 64 65 65 66 66 67 67 68 69 70 70 69 69 69 70 70 70 69 69 68 67 67 67 67 67 66 65 66 67 67 67 67 67 66 66 65 64 63 63 63 63 63 63 64 64 64 64 65 65 65 65 65 65 65 65 65 64 64 64 64 64 63 64 64 64 64 64 64 64 64 63 63 62 62 61 60 60 58 57 56 54 52 51
64 64 65 65 65 66 67 68 69 70 70 71 71 72 72 73 73 73 72 71 70 69 69 68 67 67 68 68 68 68 68 67 67 66 65 63 62 62 61 61 61 62 62 62 63 63 63 64 64 65 65 65 65 65 65 65 65 64 64 64 65 65 65 65 65 65 65 66 66 66 66 65 65 64 63 63 62 61 60 59 58 56 55 53 51
64 65 65 65 66 66 67 68 70 70 71 71 71 71 71 71 71 71 71 70 70 69 69 68 68 68 69 68 68 67 66 65 63 62 61 60 60 60 60 60 60 61 61 62 62 63 63 64 64 64 64 64 64 64 64 64 64 64 64 65 65 65 65 66 66 66 66 67 67 67 67 66 66 65 64 63 63 61 60 59 58 57 55 53 51
65 65 65 66 66 66 67 68 69 70 70 71 71 70 70 70 70 70 70 69 69 69 68 68 68 68 68 67 66 64 62 61 59 59 58 58 58 59 59 59 60 61 61 62 62 63 63 64 64 65 65 65 65 64 64 64 64 64 64 64 65 65 65 66 66 67 68 68 69 69 68 68 67 66 65 64 63 62 61 60 58 57 56 54 52
64 64 65 65 65 66 67 68 68 68 69 70 70 70 70 70 70 70 69 69 69 68 68 68 68 67 66 64 62 60 59 58 58 58 58 58 59 59 60 60 61 62 62 63 64 64 65 65 66 66 66 66 66 65 65 65 65 65 65 65 65 65 66 67 68 69 70 70 70 71 70 69 68 67 66 64 63 62 61 61 60 58 57 55 53
64 64 65 65 65 65 66 67 67 67 69 69 69 69 69 69 69 69 69 68 68 68 68 67 66 65 63 61 59 58 58 58 58 58 59 59 60 60 61 62 63 63 64 65 65 66 66 67 67 67 67 67 67 66 66 66 66 66 66 66 67 68 68 69 70 71 72 72 73 72 72 71 69 67 65 63 62 62 61 61 61 60 58 56 54
63 64 64 65 65 65 66 66 66 67 68 68 67 68 67 67 67 67 66 66 66 66 65 64 63 61 59 58 57 58 58 58 58 59 59 60 60 61 62 63 64 64 65 66 66 67 67 67 67 67 67 67 67 67 67 67 67 68 68 69 69 70 71 72 72 73 74 74 74 73 72 70 68 66 65 63 62 61 61 61 61 61 59 58 56
61 62 63 63 64 65 66 66 66 66 67 67 67 67 66 66 65 65 64 64 64 63 62 61 59 57 56 56 57 57 57 58 58 59 59 60 61 62 63 64 65 66 66 67 67 68 68 68 68 68 68 68 67 67 68 68 69 69 70 71 72 72 72 73 73 73 73 73 72 71 70 68 67 65 65 64 63 62 62 62 62 61 60 59 57
59 59 60 61 62 63 64 65 65 65 65 65 65 65 64 64 63 63 62 62 62 61 59 57 56 56 56 56 57 57 57 58 59 60 61 61 62 63 64 65 66 67 68 68 68 69 69 69 69 68 68 68 68 68 69 69 70 71 71 72 72 73 73 72 72 72 72 71 70 70 69 68 67 66 65 65 65 65 64 63 62 62 61 60 59
58 58 59 60 61 62 63 63 63 63 63 63 62 62 62 62 62 62 61 60 59 58 57 56 56 56 56 57 57 58 58 59 60 61 62 63 63 65 66 67 68 68 69 69 69 69 70 69 69 69 69 69 69 69 70 70 71 71 72 72 72 72 72 72 72 73 73 74 73 72 71 70 69 68 67 67 66 66 66 65 64 62 61 60 60
57 58 59 59 60 61 61 61 61 61 61 61 61 61 61 61 61 60 59 58 57 56 55 56 56 57 57 58 59 59 60 60 61 62 63 64 65 67 68 69 69 70 70 70 70 70 70 70 69 69 68 69 69 70 71 71 71 71 71 71 71 71 72 73 75 75 76 75 75 74 73 72 70 69 69 68 67 67 66 66 65 64 62 60 59
56 57 58 58 59 59 59 59 60 60 60 60 60 60 60 59 59 58 57 56 55 55 56 56 57 58 59 59 60 60 61 62 63 64 65 66 67 69 70 71 71 71 71 71 71 70 70 69 68 68 68 69 69 70 70 70 70 70 71 71 72 73 74 76 76 76 76 75 74 73 72 71 71 70 69 69 68 67 66 66 65 65 64 62 60
56 57 57 58 58 58 58 58 58 58 59 59 59 59 58 57 57 56 56 55 55 56 57 58 59 60 60 60 61 62 63 64 65 66 66 68 70 71 72 72 72 72 71 71 70 69 68 68 68 68 68 69 69 69 69 69 70 71 73 73 74 75 75 76 75 75 75 74 74 73 73 72 72 71 71 71 70 69 68 67 66 65 65 63 62
57 57 58 58 57 57 57 57 58 58 58 58 58 57 56 56 56 56 56 56 56 57 59 60 61 61 61 62 63 64 65 66 66 67 68 70 72 73 73 73 73 72 71 70 69 68 67 67 67 68 68 69 69 69 70 71 72 73 74 75 75 75 75 75 74 74 74 75 75 75 75 75 74 74 74 73 73 72 71 69 68 67 66 65 63
57 58 58 58 57 57 57 57 58 58 58 58 57 57 56 56 56 57 57 57 58 60 61 62 62 62 63 64 65 66 67 67 67 68 70 72 73 74 73 73 72 70 69 68 67 66 66 67 68 68 69 69 70 71 71 72 73 73 74 74 74 74 74 75 75 75 76 77 77 78 79 79 78 77 76 75 75 74 73 71 70 68 67 67 65
57 57 57 57 56 56 56 57 57 58 58 57 57 56 57 57 57 58 58 59 60 61 62 63 63 64 65 66 67 67 67 67 68 70 72 73 74 74 72 71 69 68 67 66 66 66 66 67 68 69 69 70 71 71 72 72 72 73 73 74 74 75 75 76 77 77 78 79 80 80 80 79 79 78 76 75 74 73 73 72 71 69 68 67 66
56 56 56 56 56 56 56 56 57 57 57 57 57 57 57 58 58 59 60 61 62 62 63 64 66 67 67 68 68 67 67 68 70 72 73 74 73 72 70 68 66 65 65 65 65 66 66 67 68 69 70 70 71 71 72 73 73 74 75 75 76 77 77 78 79 79 79 79 79 79 78 78 77 76 74 73 71 70 70 70 70 69 68 67 66
56 56 55 55 55 55 55 56 57 57 58 57 57 57 58 58 59 60 62 63 64 65 66 67 67 68 68 68 67 68 69 70 72 73 73 73 71 69 67 66 64 64 64 64 65 66 67 68 69 69 70 71 72 72 73 75 75 76 77 77 78 79 79 80 80 79 79 78 78 77 76 75 74 72 70 68 67 65 65 65 66 67 66 66 65
54 54 54 54 55 55 55 56 57 57 57 58 58 58 59 60 61 63 64 65 66 67 68 68 68 68 67 67 68 69 70 72 73 73 72 71 69 67 65 64 63 64 64 65 66 67 68 69 69 70 71 72 73 74 75 75 76 77 78 79 79 80 81 81 80 80 79 78 77 75 74 72 71 69 67 64 62 60 59 59 61 62 63 64 63
52 52 53 53 54 55 56 56 57 58 58 58 59 60 61 62 64 65 66 67 67 67 67 67 67 67 67 68 69 70 72 73 73 72 70 68 66 65 64 64 64 65 66 67 67 68 69 70 71 72 72 73 74 74 75 76 77 78 79 80 80 80 81 81 81 80 79 77 76 73 71 69 68 66 64 62 59 57 56 56 56 58 60 60 60
50 51 52 52 53 54 56 57 58 58 59 60 61 62 63 64 65 66 66 66 66 66 66 66 66 67 68 69 70 71 72 73 72 70 67 66 64 64 64 65 65 66 67 67 67 68 70 71 72 72 73 73 74 75 75 76 77 78 79 80 80 80 81 81 80 79 77 75 73 71 69 68 66 64 62 60 56 54 53 53 53 55 56 57 56
49 50 51 52 53 54 55 57 58 59 60 61 62 62 63 64 64 65 64 64 65 65 65 66 67 68 69 70 71 72 72 71 69 67 65 64 64 64 65 66 66 67 67 68 69 70 71 72 72 73 73 74 74 75 76 77 78 79 79 79 80 80 79 79 77 76 74 72 71 69 68 67 65 63 61 58 54 50 49 50 50 50 52 53 53
49 50 51 52 53 54 56 57 58 59 60 61 62 62 63 64 64 64 64 65 65 65 66 67 67 68 69 70 71 71 70 69 67 65 64 64 64 65 66 67 67 68 68 69 70 71 72 72 73 73 73 74 74 75 76 77 78 79 79 79 78 77 75 74 73 71 70 70 69 68 66 65 63 62 60 57 52 48 47 48 47 45 46 49 49
50 51 53 53 54 55 56 57 58 59 60 61 61 62 62 63 64 64 64 64 64 65 66 67 67 68 69 70 70 69 68 66 65 64 64 64 65 66 67 68 68 69 70 70 70 71 71 72 72 73 73 74 75 76 76 77 78 78 77 75 74 72 70 69 69 69 68 67 66 65 63 62 61 59 57 54 49 45 44 46 44 41 42 44 45
53 53 54 55 56 56 56 57 58 58 59 60 60 60 61 62 62 62 62 63 64 65 66 66 67 68 69 69 68 67 66 65 64 63 64 65 66 67 68 68 69 69 69 70 70 70 71 71 72 73 74 74 75 76 76 77 76 75 73 70 68 66 65 65 66 66 66 65 63 62 60 58 57 55 54 50 45 41 41 42 40 38 38 40 40
55 55 55 56 57 57 58 58 59 59 60 60 60 60 60 61 61 61 62 62 64 64 65 66 67 68 68 67 66 65 64 64 63 64 65 66 67 67 68 68 68 68 68 69 69 70 71 72 72 73 73 74 74 75 75 74 72 70 67 64 63 63 63 63 63 64 63 62 60 58 57 56 54 53 51 48 42 37 37 39 37 34 34 37 37
57 57 57 57 58 59 59 60 60 61 61 61 61 60 61 61 61 61 62 62 63 64 65 66 67 67 66 66 65 64 63 64 64 65 66 67 67 67 67 67 67 67 67 68 69 70 71 72 72 72 73 73 73 72 71 69 66 64 62 60 60 61 61 61 61 61 61 59 58 56 56 54 52 50 49 46 40 35 33 36 35 31 30 33 34
58 58 58 59 59 60 61 62 62 62 62 62 62 61 61 61 61 61 62 63 63 64 65 66 66 65 65 64 64 63 64 65 66 67 67 67 67 67 66 66 66 66 67 68 69 70 71 71 72 72 72 71 70 68 65 63 60 59 58 58 59 59 59 59 59 60 60 59 58 57 55 53 51 48 46 44 40 34 30 30 31 28 27 29 31
59 59 59 60 61 62 62 63 63 63 63 63 63 62 61 61 61 62 62 63 63 64 65 65 65 64 64 63 63 64 65 66 67 67 67 67 66 65 65 65 65 66 67 68 69 70 71 71 71 71 69 68 65 62 59 57 56 56 56 56 57 58 59 59 60 61 61 61 60 58 56 54 50 45 43 42 39 36 31 28 27 25 25 26 28
60 60 60 61 62 63 64 65 64 64 64 64 63 62 61 61 62 62 63 63 63 64 64 64 64 63 63 63 64 64 65 66 67 67 66 65 65 64 64 64 65 66 67 68 69 70 70 70 69 67 65 62 60 57 55 54 54 54 55 55 56 57 58 60 61 62 62 61 59 58 55 52 48 43 40 38 37 34 31 28 25 23 22 24 26
60 61 61 63 64 65 65 65 65 65 65 64 62 62 61 61 62 62 63 64 64 64 64 63 63 62 63 63 64 65 65 66 65 65 64 64 63 63 64 65 66 67 67 69 69 70 69 67 65 62 59 57 55 53 52 52 52 53 53 54 55 56 58 59 60 61 61 60 57 55 53 50 47 44 40 36 34 32 29 26 24 22 21 22 24
61 62 63 64 65 66 66 66 66 65 64 63 62 61 61 62 62 63 64 64 64 64 63 62 62 62 63 64 64 65 65 64 64 63 63 63 63 63 64 65 67 68 69 69 69 67 65 63 60 57 55 53 51 50 49 49 49 50 51 51 53 55 56 57 58 59 59 57 55 52 51 49 46 44 40 36 33 30 28 25 22 21 20 21 23
63 63 64 66 67 67 67 66 65 63 62 62 61 61 62 62 63 63 63 63 63 63 62 62 62 63 63 64 64 64 63 63 62 62 62 62 63 64 65 67 68 69 69 68 65 63 61 58 56 53 52 50 49 48 47 47 47 47 48 49 50 53 54 55 57 57 57 56 54 51 49 47 44 41 39 36 32 29 27 24 22 20 19 20 21
64 65 67 67 67 66 65 63 62 61 61 61 61 61 62 62 63 63 62 62 62 61 61 61 62 63 63 64 63 63 62 62 61 61 62 63 64 66 67 68 69 68 66 63 61 58 56 54 52 51 49 48 47 46 45 45 45 45 46 47 49 51 53 54 55 56 55 54 52 49 46 44 42 39 37 35 33 29 26 23 21 19 18 19 20
Wind_Direction
211 216 233 250 256 260 266 267 265 265 262 261 264 266 265 267 269 272 273 274 274 275 276 277 279 281 283 284 284 284 285 286 288 289 290 291 291 292 293 293 293 294 294 295 295 296 296 296 297 297 298 298 298 299 299 299 300 299 299 298 296 294 293 294 293 291 288 285 283 281 278 276 274 272 271 268 266 265 264 263 264 265 267 268 268
223 223 234 241 242 247 255 262 264 260 257 259 261 261 261 263 266 267 268 270 271 272 273 276 279 282 283 284 284 284 285 287 288 289 290 291 292 293 293 294 294 294 295 295 295 296 296 297 298 298 298 299 299 299 299 299 299 299 298 297 295 293 293 294 293 291 288 285 283 282 279 276 273 271 269 268 266 265 264 264 264 264 264 264 266
232 232 235 235 233 238 246 252 254 252 255 258 255 255 255 256 259 261 264 267 269 271 274 276 279 281 283 284 284 285 286 287 288 290 292 292 293 294 294 294 295 295 295 295 295 296 297 297 298 298 298 298 298 299 299 299 299 298 297 296 294 293 293 294 293 291 288 286 284 283 281 277 274 271 267 266 266 265 265 264 264 263 263 263 263
232 231 228 226 231 239 240 241 246 249 253 253 251 252 252 252 255 259 264 267 269 271 273 276 279 281 283 284 285 286 287 289 291 292 293 293 293 294 294 295 295 295 295 295 296 296 297 297 297 297 297 298 298 298 299 298 298 297 297 296 295 294 293 292 291 289 288 286 285 284 283 280 277 274 269 266 264 263 264 265 264 264 263 262 262
231 231 227 224 233 245 245 241 244 249 250 251 251 252 251 252 256 261 265 267 269 272 274 276 278 280 282 284 286 287 289 291 292 293 293 293 294 294 294 294 294 295 295 296 296 297 297 296 296 297 297 297 298 298 298 298 297 297 296 295 294 293 292 290 289 287 285 285 285 284 284 282 281 278 274 270 266 262 262 263 264 264 264 262 262
230 230 223 223 232 242 249 248 247 249 250 251 252 251 253 254 257 259 262 265 268 271 274 276 278 281 283 285 287 288 290 292 292 293 293 294 294 294 294 294 295 295 296 296 296 296 296 296 296 296 297 297 297 297 297 297 297 296 295 294 293 292 290 289 287 285 283 282 283 283 283 283 283 282 279 276 273 268 263 261 261 263 264 264 262
230 227 219 224 233 233 240 250 250 249 249 250 250 250 252 254 255 258 261 265 269 273 277 279 281 283 285 286 288 289 290 291 292 293 293 294 294 294 294 295 295 296 297 296 296 296 296 296 296 296 296 296 297 297 297 296 296 295 294 292 291 290 289 287 286 285 283 282 281 281 282 282 282 282 281 279 278 275 271 265 260 260 262 263 263
229 228 222 226 237 241 244 249 249 249 253 257 258 256 255 256 260 264 267 271 274 278 281 283 284 285 286 287 288 289 291 292 293 293 294 294 294 295 295 295 296 297 297 296 296 296 296 296 296 296 296 296 297 297 296 295 294 293 292 291 290 289 288 286 285 284 284 283 282 281 281 281 281 280 280 279 278 277 276 273 267 262 260 260 261
228 232 233 234 241 248 250 252 252 253 257 261 264 263 262 263 266 270 272 275 278 280 281 283 284 285 286 288 289 290 291 292 293 293 294 294 295 295 296 296 297 297 296 296 296 296 296 296 296 297 297 297 297 296 296 294 293 292 291 290 289 288 287 286 285 284 284 284 283 283 282 281 281 280 279 278 277 275 275 276 274 269 265 262 260
230 234 241 242 241 245 250 253 254 256 257 260 262 264 264 266 269 272 274 276 278 280 281 282 284 285 287 289 290 291 292 293 294 294 295 295 295 296 296 296 296 296 296 295 295 295 296 296 296 297 297 297 297 296 295 294 292 291 290 289 288 288 287 286 284 284 283 283 283 283 283 282 281 280 279 278 276 274 273 273 274 273 271 268 264
234 236 242 244 242 243 248 253 256 258 260 262 264 266 267 267 269 272 274 276 278 279 281 283 284 286 288 289 291 292 293 294 295 295 296 296 295 295 295 295 295 295 295 295 295 295 295 296 296 296 296 296 296 295 294 293 292 291 291 290 289 288 287 286 284 283 283 282 282 282 282 281 281 280 279 278 276 274 272 271 271 272 272 270 268
239 239 243 245 244 244 248 252 256 258 260 262 265 266 266 267 268 270 273 276 278 281 282 283 285 286 288 290 292 293 294 295 295 295 295 294 294 295 295 295 294 294 294 294 294 295 295 295 295 295 295 295 295 294 293 293 292 292 291 290 289 288 287 286 285 283 282 282 282 282 281 281 281 280 279 278 276 274 273 271 270 270 270 269 268
242 242 243 245 246 246 248 252 255 257 259 260 262 263 264 266 268 270 273 276 279 281 283 284 285 287 288 290 292 293 294 294 294 294 293 294 294 294 294 294 294 294 294 294 294 294 294 294 294 294 294 293 293 293 292 291 291 291 290 290 289 288 287 286 286 285 284 283 283 282 282 281 281 280 280 279 277 275 273 271 269 269 269 267 267
243 243 243 244 245 246 246 249 252 255 257 260 262 263 264 265 267 269 272 274 277 280 282 284 285 287 288 290 291 292 293 293 293 293 293 293 293 293 293 292 292 292 292 292 292 292 293 293 293 292 292 292 292 291 291 290 290 289 289 289 288 288 287 286 286 285 285 284 283 283 282 282 281 280 279 278 277 276 274 272 270 269 268 267 266
243 243 244 245 246 246 247 248 250 253 255 258 261 262 263 264 266 268 270 272 275 278 282 284 286 288 289 290 291 292 292 292 292 293 293 293 292 292 291 291 291 291 291 291 291 291 291 291 291 291 291 291 290 290 290 289 289 289 289 288 288 288 288 288 287 287 286 285 285 284 283 283 282 280 279 278 277 276 275 273 271 269 268 267 265
244 244 245 246 248 249 250 250 251 253 254 256 259 261 262 264 265 268 270 272 275 278 281 283 286 288 289 290 291 291 291 291 291 291 291 291 290 290 290 289 289 289 289 289 290 290 290 290 290 289 289 289 289 289 289 289 289 289 289 289 289 289 289 289 288 288 288 288 287 286 286 284 283 282 280 279 278 276 275 273 272 270 268 267 265
245 245 246 247 248 250 252 252 252 253 254 255 257 260 263 265 267 269 271 274 276 278 280 282 283 285 287 288 289 290 290 290 290 290 289 289 289 289 288 288 288 288 288 288 288 288 288 288 289 289 289 288 289 289 289 289 289 290 290 290 290 290 290 289 289 289 289 289 289 288 287 286 285 283 282 280 278 277 275 273 271 270 268 266 264
245 246 247 248 249 250 252 254 254 254 254 255 256 258 261 264 267 269 271 274 276 278 279 281 282 283 284 285 287 288 289 289 289 288 288 288 288 288 288 288 288 288 288 288 288 288 288 288 289 289 289 289 289 289 289 290 290 290 291 291 291 291 291 291 291 290 290 290 289 288 287 287 286 284 283 281 279 277 276 274 272 270 268 266 263
244 246 247 248 249 250 252 254 256 257 257 258 258 259 261 264 267 270 272 274 275 277 278 280 281 282 284 285 287 288 288 288 288 288 288 288 289 289 289 289 289 289 289 289 289 289 289 289 289 289 289 289 290 290 290 291 291 291 292 292 292 292 292 291 291 291 290 290 289 289 288 287 286 285 284 282 280 278 276 274 272 270 268 266 263
244 245 247 248 249 250 252 254 256 257 259 260 261 262 264 266 269 271 273 274 276 277 279 280 281 283 285 287 287 288 288 287 288 288 289 290 290 291 291 291 291 290 290 290 290 290 290 290 290 290 290 290 290 291 291 291 291 291 291 292 292 291 291 291 290 290 290 289 289 289 288 288 287 286 285 283 280 278 276 274 272 270 268 265 263
245 247 248 249 250 251 252 254 256 258 260 261 262 264 265 267 269 271 273 275 277 278 280 281 283 285 286 287 287 287 287 288 289 290 290 291 291 291 291 291 291 291 291 291 291 291 291 291 291 292 292 291 291 291 291 291 291 291 291 291 291 290 290 290 290 290 289 289 289 288 288 288 287 286 285 283 281 278 276 274 272 269 268 265 263
247 248 249 250 252 253 254 255 257 259 260 262 263 264 266 267 269 271 273 275 277 279 280 282 283 285 286 286 287 287 288 289 290 290 291 291 291 291 291 291 291 292 292 292 292 292 292 293 293 293 293 292 292 292 291 291 291 291 291 290 290 290 290 290 289 289 289 288 288 288 288 288 287 286 284 282 280 278 276 274 272 270 268 266 263
248 249 250 252 253 254 255 257 258 259 261 263 264 265 266 268 269 271 273 275 277 279 280 282 283 285 285 286 287 288 289 290 290 291 291 291 291 292 292 292 292 292 293 293 293 293 293 293 293 293 293 293 292 292 292 292 291 291 291 291 290 290 290 290 289 289 289 289 289 288 288 288 287 285 283 280 278 276 274 273 272 270 268 267 264
249 250 251 253 254 255 256 257 259 260 261 263 264 266 267 269 270 272 274 276 277 279 281 283 284 285 286 287 288 289 290 290 290 290 291 291 292 292 292 293 293 293 293 293 294 294 294 294 294 294 293 293 293 292 292 292 292 292 291 291 290 290 290 289 289 289 289 289 289 288 288 287 286 284 281 279 276 274 273 272 271 270 269 267 265
251 252 253 254 255 256 257 258 259 261 262 264 265 267 268 270 271 272 274 276 278 280 281 283 284 285 286 287 288 288 288 288 289 289 290 291 292 293 293 294 294 294 294 294 294 295 295 295 294 294 293 293 293 292 292 292 292 292 291 291 291 290 290 290 290 290 289 289 289 288 287 286 285 283 281 279 277 274 272 271 270 269 268 267 265
252 253 254 255 256 257 258 259 260 262 263 265 267 268 270 271 272 273 275 277 278 280 281 282 283 284 285 286 286 286 287 287 288 289 291 292 293 294 294 294 295 295 295 295 295 295 295 295 294 294 293 293 293 293 292 292 292 292 291 291 291 291 291 290 290 290 289 289 288 288 287 286 285 283 282 280 278 276 274 272 270 268 267 266 264
253 254 255 256 257 258 259 260 261 263 264 266 268 269 270 272 273 275 276 277 278 279 280 281 282 283 284 284 285 285 286 287 289 290 292 293 293 294 295 295 295 295 295 295 294 294 294 294 294 293 293 293 293 293 292 292 292 291 291 291 290 290 290 290 290 290 289 289 288 288 286 285 284 283 282 280 279 278 276 275 273 271 268 266 264
254 255 256 257 258 259 260 262 263 264 265 267 268 269 271 272 274 275 276 277 277 279 280 281 282 283 283 284 285 286 287 289 290 291 292 293 294 295 295 295 295 295 295 294 294 294 294 294 293 293 293 293 293 292 292 292 292 291 291 291 290 290 290 290 290 290 290 289 289 288 287 286 284 283 282 281 280 278 277 276 275 274 271 268 265
256 257 257 258 259 260 262 263 264 265 266 268 269 270 271 273 274 275 275 276 277 278 280 281 282 282 283 285 286 288 289 291 291 292 293 293 294 295 295 295 295 295 294 294 294 294 293 293 293 293 292 292 292 292 292 292 292 292 291 291 290 290 290 291 291 290 290 290 289 289 288 287 286 285 284 283 281 279 277 276 274 273 272 269 267
257 258 259 259 260 262 263 264 265 266 267 268 269 270 272 273 274 274 275 277 278 279 280 280 281 283 285 287 289 290 291 292 292 292 292 293 294 295 295 295 295 295 294 294 294 293 293 292 292 292 292 292 292 292 292 292 292 292 292 291 291 291 291 291 291 291 291 291 290 290 289 288 287 286 285 284 282 280 278 276 274 272 270 268 266
256 257 258 259 261 262 263 264 266 266 267 268 269 271 272 272 273 274 275 276 277 278 278 280 282 285 287 289 290 290 291 291 291 292 292 294 295 296 296 296 295 295 294 294 293 292 292 292 292 292 292 292 292 292 292 292 292 292 292 292 292 292 292 292 292 292 292 292 292 292 291 290 289 287 286 284 282 281 278 276 274 271 269 267 264
257 258 259 260 262 263 264 265 266 267 268 269 270 271 272 273 274 274 275 275 276 277 279 282 284 286 288 289 290 290 291 290 291 291 293 295 296 296 296 296 295 294 293 293 292 292 292 292 293 293 293 293 293 292 292 293 293 293 294 294 294 294 294 294 294 294 294 294 294 293 292 291 290 288 287 285 283 281 279 277 274 271 268 266 263
259 260 261 262 263 264 265 267 267 268 269 270 271 272 272 273 273 274 275 276 277 279 281 284 285 287 288 289 289 290 289 290 290 292 294 295 296 296 296 295 294 293 293 293 293 293 293 293 294 294 294 294 294 294 294 295 295 296 296 296 296 296 296 296 296 296 295 295 294 293 292 291 290 289 287 285 284 282 280 278 275 272 269 265 261
259 260 262 263 265 266 267 267 268 268 269 270 271 272 272 273 274 274 275 277 278 280 282 284 285 287 288 288 288 288 289 290 292 293 295 296 296 296 295 294 294 293 293 293 294 294 294 294 294 294 295 295 296 296 297 297 298 298 298 297 297 297 297 297 297 297 296 295 295 294 293 292 290 289 288 286 284 282 280 278 276 273 269 265 261
258 260 262 263 264 266 266 267 267 268 269 270 271 272 272 273 274 275 276 277 279 281 282 284 285 286 287 287 288 288 290 291 293 295 296 296 296 295 294 294 293 293 293 294 294 294 295 295 295 296 297 298 298 299 299 299 299 299 299 299 299 299 299 299 299 298 298 297 296 295 294 293 292 291 290 288 286 283 281 278 275 272 269 265 261
257 259 261 262 263 265 265 266 267 268 269 270 271 271 272 273 274 275 276 278 279 281 283 284 285 286 286 287 288 289 291 293 294 295 295 295 295 294 293 293 293 293 294 295 295 296 296 297 298 299 299 300 300 300 300 300 300 300 300 300 301 301 301 301 301 301 300 299 299 298 297 296 295 294 292 290 288 285 281 278 275 272 268 265 261
256 258 259 261 262 264 265 266 267 267 268 269 270 271 272 273 274 276 277 279 281 282 283 284 285 285 287 288 290 291 293 294 295 295 295 294 294 293 293 293 294 295 296 297 297 298 299 299 300 300 300 300 300 300 300 300 300 301 301 302 303 303 303 303 303 302 302 301 301 300 300 299 298 296 294 293 290 288 284 280 275 271 268 265 261
257 258 259 260 262 263 264 265 267 268 269 269 270 271 273 274 276 277 278 280 281 282 283 284 285 287 288 290 291 292 294 294 295 294 294 293 293 293 294 295 296 297 298 298 299 299 300 300 300 300 300 300 300 301 301 301 302 303 303 304 304 304 304 304 304 303 303 303 302 302 302 301 300 298 297 294 292 289 286 281 276 272 268 265 262
258 259 259 260 261 263 264 265 266 267 268 269 271 272 274 275 276 277 278 279 280 282 283 285 286 288 290 291 292 293 294 294 294 293 293 293 293 294 295 296 297 298 299 299 300 300 300 300 300 300 300 301 301 302 302 303 304 304 305 305 305 305 305 304 304 304 304 304 304 304 304 303 302 301 299 297 295 293 288 283 277 272 269 265 262
259 260 260 261 261 262 263 265 266 267 269 270 271 273 274 275 276 277 278 279 281 283 284 286 288 289 290 291 292 293 294 293 293 292 292 293 294 295 296 297 298 299 299 299 300 300 300 300 300 301 301 302 303 303 304 305 305 305 305 305 306 305 305 304 304 304 305 305 306 306 306 306 305 304 302 300 298 296 290 285 280 274 269 265 261
258 260 261 262 263 264 265 267 268 269 270 272 273 274 275 275 277 278 279 281 283 284 286 287 289 290 291 292 293 293 293 292 292 292 292 293 295 296 297 298 299 299 299 299 299 300 300 300 301 302 303 303 304 304 305 305 305 305 306 306 306 305 305 305 305 306 306 307 307 308 308 307 306 304 302 300 299 296 290 284 281 277 270 264 260
259 260 262 263 265 266 268 269 270 271 272 273 274 275 276 277 278 279 281 283 284 285 287 288 289 291 292 292 293 292 291 291 291 292 293 294 295 297 298 298 299 299 299 299 299 300 300 301 302 303 303 304 304 305 305 305 305 306 306 306 306 305 305 306 307 307 308 309 309 309 309 308 307 306 305 303 301 297 290 285 281 276 270 265 259
260 261 262 264 266 267 269 270 271 273 274 275 276 277 278 279 280 281 282 284 285 286 288 289 290 291 292 291 291 291 291 291 291 293 294 295 297 297 298 298 298 298 299 299 300 301 301 302 303 303 303 304 304 305 305 305 306 306 306 306 306 306 307 308 309 309 309 310 311 312 312 312 311 310 308 306 304 300 292 287 282 276 269 264 258
261 263 264 265 266 268 269 270 272 273 274 276 277 278 279 280 281 282 283 284 286 287 289 290 290 291 290 290 290 290 290 291 292 294 295 296 297 297 297 297 298 298 299 300 301 302 302 302 302 303 304 304 305 305 306 306 306 306 306 307 307 308 309 310 310 311 312 313 315 316 316 315 314 313 311 309 306 302 294 288 285 279 269 262 257
263 264 265 266 267 268 270 271 273 274 275 277 277 278 279 280 281 282 283 285 287 288 289 290 290 289 289 289 289 289 290 292 293 295 295 296 296 296 296 297 298 299 300 301 302 302 302 302 303 304 305 305 306 306 306 306 306 307 308 309 310 310 311 312 314 315 317 318 319 320 319 318 317 316 315 312 309 305 299 292 287 281 271 261 254
263 264 265 266 267 269 270 271 273 275 276 277 278 278 279 280 281 282 284 285 287 288 288 288 288 288 288 288 288 289 291 292 293 294 294 295 295 295 297 298 300 301 301 302 301 302 302 303 304 305 306 306 306 307 307 307 308 309 310 312 313 314 315 317 318 320 320 321 322 322 321 319 319 318 318 316 313 309 305 299 291 283 272 261 253
264 265 266 267 268 268 269 271 273 274 276 277 277 278 278 279 281 282 284 285 286 287 287 286 286 286 286 287 288 289 290 292 293 293 294 294 295 297 299 300 301 301 301 301 302 303 304 304 305 306 306 306 307 307 308 309 310 312 313 315 316 318 319 320 321 321 322 322 323 322 321 320 320 321 320 318 314 311 308 303 296 286 273 262 252
264 265 266 267 268 269 270 271 273 274 275 276 276 277 278 279 280 282 284 285 285 285 284 284 285 285 285 286 288 289 291 292 293 293 294 295 297 299 301 301 301 301 302 303 303 304 305 305 305 306 306 306 307 308 310 312 314 315 317 318 320 320 320 320 321 321 321 322 323 323 323 323 323 323 322 320 317 314 310 305 298 288 274 262 252
264 265 266 267 268 269 270 271 272 273 274 274 275 276 277 279 280 282 283 283 283 283 283 283 284 284 286 287 289 291 292 292 293 294 295 297 299 301 301 302 302 302 303 304 304 305 305 305 305 306 306 307 308 310 312 314 316 317 318 320 320 319 319 319 320 321 322 323 325 326 325 325 324 324 323 323 321 317 313 308 300 289 276 263 252
265 266 266 266 267 268 269 270 271 272 273 273 274 276 277 279 280 281 281 281 281 281 282 283 284 285 287 289 291 291 291 292 293 295 297 299 301 302 302 302 302 303 304 304 304 305 305 305 305 306 306 308 310 312 314 316 317 318 319 319 319 318 319 320 321 323 324 326 328 328 326 325 326 326 326 325 324 321 316 311 303 291 277 264 254
265 265 265 265 266 268 269 270 270 271 271 273 274 276 277 279 279 279 279 279 280 281 282 283 285 287 289 290 290 291 291 293 295 297 299 301 301 302 302 302 302 303 303 304 304 305 305 305 305 306 307 309 311 313 315 317 318 319 319 319 319 319 320 322 323 325 326 328 329 329 328 328 328 329 329 328 326 323 319 313 305 293 279 266 255